Weather History for Livingston, MT

Change the Weather History Date:

Tuesday, October 8, 2013

  Actual Average Record
Temperature  
Mean Temperature 44 °F 48 °F  
Max Temperature 56 °F 62 °F 83 °F (1952)
Min Temperature 32 °F 33 °F 13 °F (1985)
Degree Days  
Heating Degree Days 21 17  
Month to date heating degree days 151 129  
Since 1 July heating degree days 324 538  
Cooling Degree Days 0 0  
Month to date cooling degree days 0 0  
Year to date cooling degree days 495 229  
Moisture  
Dew Point 31 °F    
Average Humidity 58    
Maximum Humidity 89    
Minimum Humidity 26    
Precipitation  
Precipitation 0.05 in 0.04 in 0.45 in (1960)
Month to date precipitation 0.68 0.39  
Year to date precipitation 10.51 12.83  
Sea Level Pressure  
Sea Level Pressure 29.80 in    
Wind  
Wind Speed 9 mph (WNW)    
Max Wind Speed 24 mph    
Max Gust Speed 32 mph    
Visibility 10 miles    
Events Rain    
T = Trace of Precipitation, MM = Missing Value Source: NWS Daily Summary

Daily Weather History Graph

Daily Weather History Graph

Search for Another Location

Airport:

Trip Planner

Search our weather history database for the weather conditions in past years. The results will help you decide how hot, cold, wet, or windy it might be!

Date:

Astronomy

Oct. 08, 2013 Rise Set
Actual Time 7:29 AM MDT 6:48 PM MDT
Civil Twilight 6:59 AM MDT 7:17 PM MDT
Nautical Twilight 6:25 AM MDT 7:52 PM MDT
Astronomical Twilight 5:50 AM MDT 8:26 PM MDT
Moon 11:38 AM MDT (10/8) 9:16 PM MDT (10/8)
Length of Visible Light 12h 18m
Length of Day
11h 18m
Waxing Crescent, 16% of the Moon is Illuminated
Oct 8
Waxing Crescent
Oct 11
First Quarter
Oct 18
Full
Oct 26
Last Quarter
Nov 3
New

Hourly Weather History & Observations

Time (MDT) Temp. Windchill Dew Point Humidity Pressure Visibility Wind Dir Wind Speed Gust Speed Precip Events Conditions
12:53 AM 55.9 °F - 21.9 °F 27% 29.66 in 10.0 mi West 13.8 mph - N/A   Clear
1:53 AM 50.0 °F - 28.9 °F 44% 29.69 in 10.0 mi WNW 10.4 mph - N/A   Clear
2:53 AM 50.0 °F - 30.0 °F 46% 29.70 in 10.0 mi NW 12.7 mph - N/A   Scattered Clouds
3:53 AM 46.9 °F - 30.0 °F 52% 29.71 in 10.0 mi WNW 11.5 mph - N/A   Partly Cloudy
4:53 AM 45.0 °F 40.1 °F 28.9 °F 53% 29.73 in 10.0 mi WNW 9.2 mph 20.7 mph N/A   Clear
5:53 AM 44.1 °F 38.6 °F 28.9 °F 55% 29.73 in 10.0 mi West 10.4 mph - N/A   Clear
6:53 AM 43.0 °F 37.2 °F 30.0 °F 60% 29.75 in 10.0 mi WSW 10.4 mph - N/A   Clear
7:53 AM 43.0 °F 37.2 °F 28.9 °F 58% 29.76 in 10.0 mi WSW 10.4 mph - N/A   Clear
8:53 AM 46.0 °F 41.0 °F 30.0 °F 54% 29.76 in 10.0 mi West 10.4 mph - N/A   Clear
9:53 AM 50.0 °F - 28.9 °F 44% 29.76 in 10.0 mi WNW 15.0 mph - N/A   Clear
10:53 AM 50.0 °F - 28.9 °F 44% 29.73 in 10.0 mi NNW 10.4 mph - N/A   Partly Cloudy
11:53 AM 52.0 °F - 30.0 °F 43% 29.72 in 10.0 mi WNW 11.5 mph - N/A   Partly Cloudy
12:53 PM 52.0 °F - 30.0 °F 43% 29.74 in 10.0 mi NW 8.1 mph - N/A   Mostly Cloudy
1:53 PM 53.1 °F - 30.9 °F 43% 29.74 in 10.0 mi West 6.9 mph - N/A   Mostly Cloudy
2:53 PM 51.1 °F - 30.9 °F 46% 29.76 in 10.0 mi West 19.6 mph 27.6 mph N/A   Overcast
3:53 PM 46.9 °F - 35.1 °F 63% 29.81 in 10.0 mi East 6.9 mph - 0.01 in   Overcast
4:53 PM 46.0 °F 39.9 °F 37.0 °F 71% 29.85 in 10.0 mi SSE 13.8 mph - 0.01 in Rain Light Rain
5:53 PM 44.1 °F 39.0 °F 37.9 °F 79% 29.88 in 10.0 mi ESE 9.2 mph - 0.03 in Rain Light Rain
6:53 PM 41.0 °F 38.0 °F 36.0 °F 82% 29.91 in 10.0 mi ENE 4.6 mph - 0.00 in   Scattered Clouds
7:53 PM 39.9 °F - 33.1 °F 77% 29.93 in 10.0 mi Calm Calm - N/A   Partly Cloudy
8:53 PM 37.9 °F - 33.1 °F 83% 29.95 in 10.0 mi Calm Calm - N/A   Scattered Clouds
9:53 PM 37.0 °F 34.5 °F 33.1 °F 86% 29.96 in 10.0 mi NW 3.5 mph - N/A   Clear
10:53 PM 34.0 °F 28.0 °F 30.9 °F 89% 29.98 in 10.0 mi NW 6.9 mph - N/A   Partly Cloudy
11:53 PM 34.0 °F - 30.0 °F 85% 29.97 in 10.0 mi Calm Calm - N/A   Clear